Miscellaneous Local Product
Issued by NWS North Platte, NE

Home | Current Version | Previous Version | Text Only | Print | Product List | Glossary On
Versions: 1 2 3 4 5 6 7 8 9 10 11 12 13 14 15 16 17 18 19 20 21 22 23 24 25 26 27 28 29 30 31 32 33 34 35 36 37 38 39 40 41 42 43 44 45 46 47 48 49 50
000
AXUS43 KLBF 251610
MISLBF


WESTERN AND NORTH CENTRAL NEBRASKA HOURLY WEATHER ROUNDUP
NATIONAL WEATHER SERVICE NORTH PLATTE NE
1100 AM CDT SUN SEP 25 2016

NOTE: "FAIR" INDICATES FEW OR NO CLOUDS BELOW 12,000 FEET WITH NO
SIGNIFICANT WEATHER AND/OR OBSTRUCTIONS TO VISIBILITY.

NOTE: STATIONS NOT REPORTING VARIABLES SUCH AS SKY/WEATHER OR
PRESSURE ARE PROVIDED BY RAWS AND APRS NETWORKS AND ARE NOT UNDER
NATIONAL WEATHER SERVICE QUALITY CONTROL.

...OBSERVATIONS IN AND NEAR THE EASTERN PANHANDLE OF NEBRASKA...

CITY           SKY/WX    TMP DP  RH WIND       PRES   REMARKS
PINE RIDGE     SUNNY     58  30  34 NW20G31   30.35R
CHADRON        SUNNY     57  38  48 NW23G31   30.39R
ALLIANCE       SUNNY     57  34  41 NW21G35   30.38R
SIDNEY         LGT RAIN  58  39  49 NW25G33   30.43R
CRESCENT LAKE    N/A     57  36  46 NW16G25     N/A
$$

...OBSERVATIONS IN NORTHERN NEBRASKA AND FAR SOUTHERN SOUTH DAKOTA...

CITY           SKY/WX    TMP DP  RH WIND       PRES   REMARKS
WINNER           N/A     62  40  44 NW29G40   30.19R
VALENTINE      SUNNY     60  34  37 NW24G36   30.27R
THEDFORD       SUNNY     61  36  39 NW21G32   30.30R
AINSWORTH      SUNNY     60  37  43 NW29G40   30.25R
O`NEILL        PTSUNNY   62  42  48 NW29G36   30.19S
ORD            MOSUNNY   63  43  48 NW22G36   30.21R
BROKEN BOW     SUNNY     62  40  44 NW26G40   30.25R
VALENTINE NWR    N/A     58  38  47 NW20G30     N/A
BUTTE            N/A     59  45  58 W29G40      N/A
HALSEY           N/A     60  38  45 NW16G30     N/A
EWING            N/A     62  48  61 NW21G32     N/A
$$

...OBSERVATIONS IN SOUTHWEST NEBRASKA AND FAR NORTHEAST COLORADO...

CITY           SKY/WX    TMP DP  RH WIND       PRES   REMARKS
WRAY           FAIR      61  36  39 N22G29    30.40R
HOLYOKE        FAIR      61  36  39 NW18G31   30.40S
IMPERIAL       SUNNY     62  35  36 NW28G40   30.35F
OGALLALA       SUNNY     62  40  45 NW24G35   30.35F
NORTH PLATTE   SUNNY     65  41  41 NW21G29   30.31S
MCCOOK         SUNNY     65  41  41 NW22G28   30.32R
LEXINGTON      SUNNY     63  43  47 NW21G28   30.29R
STAPLETON        N/A     60  43  54 W3G12       N/A
GOTHENBURG       N/A     59  41  52 NW15        N/A
CALLAWAY         N/A     58  46  64 NW22        N/A
$$

...OBSERVATIONS IN CENTRAL LINCOLN COUNTY AREA...

CITY           SKY/WX    TMP DP  RH WIND       PRES   REMARKS
N.P. AIRPORT   SUNNY     65  41  41 NW21G29   30.31S
N.P. DOWNTOWN    N/A     62  41  46 NW12G25     N/A
N.P. SOUTHEAST   N/A     61  40  46 NW9G20      N/A
N.P. HILLCREST   N/A     61  40  45 NW20G30     N/A
$$

...SOME OBSERVATIONS FROM AROUND THE REGION...

CITY           SKY/WX    TMP DP  RH WIND       PRES   REMARKS
DENVER         MOSUNNY   57  31  37 N18G24    30.48R
LARAMIE        SUNNY     45  32  60 CALM      30.51R
CHEYENNE       SUNNY     52  31  44 NW13G20   30.48S
SCOTTSBLUFF    PTSUNNY   58  40  51 NW21G29   30.44R
RAPID CITY     SUNNY     56  31  38 NW29G40   30.32R
BISMARCK       SUNNY     57  44  62 NW23G41   30.06R
PIERRE         SUNNY     61  40  45 NW31G44   30.13R
SIOUX FALLS    CLOUDY    59  49  69 W15G28    30.03R
OMAHA          CLOUDY    62  50  64 NW10      30.14R
GRAND ISLAND   SUNNY     65  44  46 NW20G31   30.23R
KANSAS CITY    DRIZZLE   63  58  83 N15       30.14R
WICHITA        CLOUDY    62  51  67 N18G24    30.20R
OKLAHOMA CITY  CLOUDY    73  67  81 N9        30.12R
DALLAS         CLOUDY    75  71  87 NW10      30.04R
AMARILLO       MOSUNNY   63  41  44 N30       30.31R
DODGE CITY     SUNNY     65  44  46 N22G31    30.29R
HAYS           SUNNY     66  43  42 N17       30.29R
GOODLAND       SUNNY     61  37  41 N23G31    30.38R
$$




USA.gov is the U.S. government's official web portal to all federal, state and local government web resources and services.